| time (UTC) | temp F | wind direction | speed MPH | gust MPH | rain 1hr in | rain 24hr in | rain mn in | humidity % | barometer mb |
| 20260903161817 | 57 | 170 | 10.0 | 15.0 | 0.01 | 0.71 | 0.23 | 100 | 1007.9 |
| 20260903161710 | 57 | 204 | 7.0 | 15.0 | 0.00 | 0.71 | 0.22 | 100 | 1007.9 |
| 20260903161311 | 57 | 225 | 8.0 | 8.0 | 0.00 | 0.71 | 0.22 | 100 | 1007.9 |
| 20260903161153 | 57 | 187 | 9.0 | 22.0 | 0.00 | 0.71 | 0.22 | 100 | 1008.0 |
| 20260903160803 | 57 | 226 | 10.0 | 22.0 | 0.00 | 0.77 | 0.22 | 100 | 1008.0 |
| 20260903160636 | 57 | 215 | 6.0 | 22.0 | 0.00 | 0.77 | 0.22 | 100 | 1008.0 |
| 20260903160256 | 57 | 215 | 8.0 | 22.0 | 0.00 | 0.77 | 0.22 | 100 | 1008.0 |
| 20260903160119 | 57 | 215 | 9.0 | 22.0 | 0.00 | 0.77 | 0.22 | 100 | 1008.0 |
| 20260903155749 | 57 | 189 | 15.0 | 22.0 | 0.00 | 0.77 | 0.22 | 100 | 1008.0 |
| 20260903155602 | 57 | 189 | 13.0 | 22.0 | 0.00 | 0.77 | 0.22 | 100 | 1008.1 |
| 20260903155242 | 57 | 183 | 15.0 | 16.0 | 0.00 | 0.77 | 0.22 | 100 | 1008.0 |
| 20260903155045 | 57 | 198 | 8.0 | 16.0 | 0.00 | 0.77 | 0.22 | 100 | 1007.9 |
| 20260903154735 | 57 | 173 | 9.0 | 16.0 | 0.00 | 0.77 | 0.22 | 100 | 1008.0 |
| 20260903154528 | 57 | 173 | 10.0 | 16.0 | 0.00 | 0.77 | 0.22 | 100 | 1008.1 |
| 20260903154228 | 56 | 190 | 13.0 | 16.0 | 0.00 | 0.77 | 0.22 | 100 | 1008.1 |
| 20260903154011 | 56 | 170 | 7.0 | 16.0 | 0.00 | 0.77 | 0.22 | 100 | 1008.1 |
| 20260903153722 | 56 | 165 | 7.0 | 16.0 | 0.00 | 0.77 | 0.22 | 100 | 1008.0 |
| 20260903153454 | 56 | 205 | 6.0 | 16.0 | 0.00 | 0.77 | 0.22 | 100 | 1008.1 |
| 20260903153214 | 56 | 163 | 10.0 | 16.0 | 0.00 | 0.77 | 0.22 | 100 | 1008.0 |
| 20260903152937 | 56 | 163 | 9.0 | 16.0 | 0.00 | 0.77 | 0.22 | 100 | 1008.1 |
| 20260903152707 | 56 | 177 | 6.0 | 16.0 | 0.00 | 0.77 | 0.22 | 100 | 1008.1 |
| 20260903152420 | 56 | 214 | 6.0 | 16.0 | 0.00 | 0.77 | 0.22 | 100 | 1008.0 |
| 20260903152200 | 56 | 168 | 7.0 | 16.0 | 0.00 | 0.77 | 0.22 | 100 | 1008.1 |
| 20260903151903 | 56 | 203 | 4.0 | 16.0 | 0.00 | 0.77 | 0.22 | 100 | 1008.1 |
| 20260903151653 | 56 | 175 | 10.0 | 16.0 | 0.00 | 0.77 | 0.22 | 100 | 1008.0 |
| 20260903151346 | 56 | 217 | 3.0 | 15.0 | 0.00 | 0.77 | 0.22 | 100 | 1008.1 |
| 20260903151146 | 56 | 191 | 10.0 | 15.0 | 0.00 | 0.77 | 0.22 | 100 | 1008.0 |
| 20260903150829 | 56 | 180 | 9.0 | 15.0 | 0.00 | 0.77 | 0.22 | 100 | 1008.0 |
| 20260903150639 | 56 | 179 | 5.0 | 15.0 | 0.00 | 0.84 | 0.22 | 100 | 1008.0 |
| 20260903150312 | 56 | 187 | 6.0 | 15.0 | 0.00 | 0.84 | 0.22 | 100 | 1008.0 |
| 20260903150132 | 56 | 194 | 9.0 | 15.0 | 0.00 | 0.84 | 0.22 | 100 | 1007.9 |
| 20260903145755 | 56 | 166 | 7.0 | 15.0 | 0.00 | 0.84 | 0.22 | 100 | 1008.0 |
| 20260903145625 | 56 | 197 | 8.0 | 15.0 | 0.00 | 0.84 | 0.22 | 100 | 1007.9 |
| 20260903145238 | 56 | 221 | 10.0 | 15.0 | 0.00 | 0.84 | 0.22 | 100 | 1007.9 |
| 20260903145118 | 55 | 221 | 10.0 | 15.0 | 0.00 | 0.84 | 0.22 | 100 | 1007.8 |
| 20260903144204 | 55 | 184 | 6.0 | 12.0 | 0.00 | 0.84 | 0.22 | 100 | 1007.8 |
| 20260903143647 | 55 | 200 | 8.0 | 16.0 | 0.00 | 0.84 | 0.22 | 100 | 1007.7 |
| 20260903143557 | 55 | 200 | 9.0 | 16.0 | 0.00 | 0.84 | 0.22 | 100 | 1007.8 |
| 20260903143130 | 55 | 219 | 9.0 | 16.0 | 0.00 | 0.84 | 0.22 | 100 | 1007.7 |
| 20260903143050 | 55 | 186 | 10.0 | 16.0 | 0.00 | 0.84 | 0.22 | 100 | 1007.7 |
| 20260903142613 | 55 | 162 | 7.0 | 16.0 | 0.00 | 0.84 | 0.22 | 100 | 1007.7 |
| 20260903142543 | 55 | 162 | 9.0 | 16.0 | 0.00 | 0.84 | 0.22 | 100 | 1007.7 |
| 20260903142056 | 55 | 212 | 11.0 | 16.0 | 0.00 | 0.84 | 0.22 | 100 | 1007.7 |
| 20260903142036 | 55 | 212 | 12.0 | 16.0 | 0.00 | 0.84 | 0.22 | 100 | 1007.7 |
| 20260903141540 | 55 | 208 | 8.0 | 12.0 | 0.00 | 0.84 | 0.22 | 100 | 1007.7 |
| 20260903141529 | 55 | 208 | 8.0 | 12.0 | 0.00 | 0.84 | 0.22 | 100 | 1007.7 |
| 20260903141022 | 55 | 191 | 6.0 | 18.0 | 0.00 | 0.84 | 0.22 | 100 | 1007.7 |
| 20260903140515 | 55 | 197 | 5.0 | 18.0 | 0.00 | 0.84 | 0.22 | 100 | 1007.8 |
| 20260903140505 | 55 | 197 | 7.0 | 18.0 | 0.00 | 0.84 | 0.22 | 100 | 1007.8 |
| 20260903140009 | 55 | 211 | 10.0 | 18.0 | 0.00 | 0.84 | 0.22 | 100 | 1007.7 |
| 20260903135948 | 55 | 211 | 9.0 | 18.0 | 0.00 | 0.84 | 0.22 | 100 | 1007.7 |
| 20260903135501 | 55 | 187 | 11.0 | 18.0 | 0.00 | 0.84 | 0.22 | 100 | 1007.7 |
| 20260903135431 | 55 | 198 | 9.0 | 15.0 | 0.00 | 0.84 | 0.22 | 100 | 1007.7 |
| 20260903134914 | 55 | 194 | 5.0 | 13.0 | 0.00 | 0.84 | 0.22 | 100 | 1007.6 |
| 20260903134447 | 55 | 175 | 5.0 | 13.0 | 0.00 | 0.84 | 0.22 | 100 | 1007.6 |
| 20260903134358 | 55 | 175 | 3.0 | 13.0 | 0.00 | 0.84 | 0.22 | 100 | 1007.7 |
| 20260903133940 | 55 | 215 | 5.0 | 13.0 | 0.00 | 0.84 | 0.22 | 100 | 1007.7 |
| 20260903133841 | 55 | 204 | 5.0 | 13.0 | 0.00 | 0.84 | 0.22 | 100 | 1007.7 |
| 20260903133433 | 55 | 198 | 5.0 | 12.0 | 0.01 | 0.84 | 0.22 | 100 | 1007.6 |
| 20260903133323 | 55 | 253 | 4.0 | 12.0 | 0.01 | 0.84 | 0.22 | 100 | 1007.5 |
| 20260903132926 | 55 | 207 | 7.0 | 12.0 | 0.01 | 0.84 | 0.22 | 100 | 1007.5 |
| 20260903132806 | 55 | 190 | 8.0 | 12.0 | 0.01 | 0.84 | 0.22 | 100 | 1007.5 |
| 20260903132419 | 55 | 224 | 6.0 | 8.0 | 0.01 | 0.84 | 0.22 | 100 | 1007.5 |
| 20260903132249 | 55 | 194 | 8.0 | 14.0 | 0.01 | 0.84 | 0.22 | 100 | 1007.5 |
| 20260903131912 | 55 | 177 | 8.0 | 14.0 | 0.01 | 0.84 | 0.22 | 100 | 1007.5 |
| 20260903131733 | 55 | 215 | 13.0 | 14.0 | 0.01 | 0.84 | 0.22 | 100 | 1007.6 |
| 20260903131405 | 55 | 201 | 5.0 | 14.0 | 0.01 | 0.84 | 0.22 | 100 | 1007.6 |
| 20260903131214 | 55 | 191 | 6.0 | 14.0 | 0.01 | 0.84 | 0.22 | 100 | 1007.5 |
| 20260903130858 | 55 | 240 | 4.0 | 14.0 | 0.01 | 0.84 | 0.22 | 100 | 1007.5 |
| 20260903130658 | 55 | 201 | 11.0 | 14.0 | 0.02 | 0.83 | 0.22 | 100 | 1007.6 |
| 20260903130351 | 55 | 193 | 5.0 | 14.0 | 0.02 | 0.83 | 0.22 | 100 | 1007.6 |
| 20260903130140 | 55 | 207 | 11.0 | 14.0 | 0.02 | 0.83 | 0.22 | 100 | 1007.6 |
| 20260903125844 | 55 | 190 | 9.0 | 14.0 | 0.02 | 0.83 | 0.22 | 100 | 1007.6 |
| 20260903125623 | 55 | 193 | 9.0 | 14.0 | 0.02 | 0.83 | 0.22 | 100 | 1007.7 |
| 20260903125338 | 55 | 203 | 8.0 | 13.0 | 0.02 | 0.83 | 0.22 | 100 | 1007.6 |
| 20260903125107 | 55 | 207 | 8.0 | 13.0 | 0.02 | 0.83 | 0.22 | 100 | 1007.7 |
| 20260903124830 | 54 | 225 | 9.0 | 13.0 | 0.02 | 0.83 | 0.22 | 100 | 1007.6 |
| 20260903124549 | 54 | 210 | 5.0 | 13.0 | 0.02 | 0.83 | 0.22 | 100 | 1007.7 |
| 20260903124323 | 54 | 214 | 5.0 | 13.0 | 0.02 | 0.83 | 0.22 | 100 | 1007.7 |
| 20260903124032 | 54 | 182 | 7.0 | 13.0 | 0.02 | 0.83 | 0.22 | 100 | 1007.8 |
| 20260903123816 | 54 | 0 | 0.0 | 13.0 | 0.02 | 0.83 | 0.22 | 100 | 1007.8 |
| 20260903123515 | 54 | 170 | 5.0 | 13.0 | 0.01 | 0.83 | 0.22 | 100 | 1007.9 |
| 20260903123309 | 54 | 0 | 4.0 | 13.0 | 0.01 | 0.83 | 0.22 | 100 | 1007.7 |
| 20260903122958 | 54 | 201 | 7.0 | 13.0 | 0.01 | 0.83 | 0.22 | 100 | 1007.8 |
| 20260903122802 | 54 | 172 | 8.0 | 13.0 | 0.02 | 0.83 | 0.21 | 100 | 1007.7 |
| 20260903122441 | 54 | 210 | 6.0 | 9.0 | 0.02 | 0.83 | 0.21 | 100 | 1007.7 |
| 20260903122254 | 54 | 207 | 4.0 | 9.0 | 0.02 | 0.83 | 0.21 | 100 | 1007.7 |
| 20260903121924 | 54 | 207 | 7.0 | 12.0 | 0.02 | 0.83 | 0.21 | 100 | 1007.7 |
| 20260903121747 | 54 | 201 | 5.0 | 12.0 | 0.02 | 0.83 | 0.21 | 100 | 1007.8 |
| 20260903121407 | 55 | 204 | 4.0 | 12.0 | 0.02 | 0.83 | 0.21 | 100 | 1007.9 |
| 20260903121240 | 55 | 154 | 8.0 | 12.0 | 0.02 | 0.83 | 0.21 | 100 | 1007.9 |
| 20260903120850 | 55 | 183 | 6.0 | 12.0 | 0.02 | 0.83 | 0.21 | 100 | 1008.0 |
| 20260903120734 | 55 | 204 | 8.0 | 12.0 | 0.03 | 0.81 | 0.21 | 100 | 1007.9 |
| 20260903120226 | 55 | 212 | 4.0 | 11.0 | 0.03 | 0.81 | 0.20 | 100 | 1008.0 |
| 20260903115817 | 55 | 186 | 5.0 | 11.0 | 0.03 | 0.81 | 0.20 | 100 | 1008.0 |
| 20260903115719 | 55 | 161 | 5.0 | 11.0 | 0.03 | 0.81 | 0.20 | 100 | 1008.1 |
| 20260903115212 | 55 | 187 | 7.0 | 16.0 | 0.03 | 0.81 | 0.20 | 100 | 1008.1 |
| 20260903114742 | 55 | 233 | 8.0 | 16.0 | 0.05 | 0.81 | 0.20 | 100 | 1008.1 |
| 20260903114706 | 55 | 233 | 6.0 | 16.0 | 0.05 | 0.81 | 0.20 | 100 | 1008.1 |
| 20260903114225 | 55 | 193 | 9.0 | 16.0 | 0.05 | 0.81 | 0.20 | 100 | 1008.1 |
| 20260903114158 | 55 | 193 | 8.0 | 16.0 | 0.05 | 0.81 | 0.20 | 100 | 1008.1 |
| 20260903113708 | 55 | 198 | 8.0 | 13.0 | 0.07 | 0.81 | 0.20 | 100 | 1008.2 |
| 20260903113651 | 55 | 198 | 10.0 | 13.0 | 0.07 | 0.81 | 0.20 | 100 | 1008.2 |
| 20260903113144 | 55 | 200 | 8.0 | 13.0 | 0.07 | 0.81 | 0.20 | 100 | 1008.2 |
| 20260903112634 | 55 | 198 | 6.0 | 13.0 | 0.06 | 0.81 | 0.19 | 100 | 1008.1 |
| 20260903112130 | 55 | 187 | 10.0 | 17.0 | 0.06 | 0.81 | 0.19 | 100 | 1008.1 |
| 20260903112117 | 55 | 187 | 6.0 | 17.0 | 0.06 | 0.81 | 0.19 | 100 | 1008.1 |
| 20260903111623 | 55 | 200 | 7.0 | 17.0 | 0.06 | 0.81 | 0.19 | 100 | 1008.2 |
| 20260903111600 | 55 | 200 | 7.0 | 17.0 | 0.06 | 0.81 | 0.19 | 100 | 1008.2 |
| 20260903111118 | 55 | 214 | 5.0 | 17.0 | 0.06 | 0.81 | 0.19 | 100 | 1008.2 |
| 20260903111044 | 55 | 214 | 4.0 | 17.0 | 0.06 | 0.81 | 0.19 | 100 | 1008.2 |
| 20260903110610 | 55 | 222 | 12.0 | 17.0 | 0.04 | 0.75 | 0.19 | 100 | 1008.1 |
| 20260903110526 | 55 | 222 | 11.0 | 17.0 | 0.04 | 0.75 | 0.19 | 100 | 1008.1 |
| 20260903110009 | 55 | 221 | 8.0 | 9.0 | 0.04 | 0.75 | 0.17 | 100 | 1008.1 |
| 20260903105454 | 55 | 226 | 5.0 | 17.0 | 0.04 | 0.75 | 0.17 | 100 | 1008.2 |
| 20260903105048 | 55 | 189 | 7.0 | 17.0 | 0.04 | 0.75 | 0.17 | 100 | 1008.2 |
| 20260903104936 | 55 | 189 | 8.0 | 17.0 | 0.04 | 0.75 | 0.17 | 100 | 1008.2 |
| 20260903104541 | 55 | 183 | 9.0 | 17.0 | 0.02 | 0.75 | 0.17 | 100 | 1008.3 |
| 20260903104418 | 55 | 233 | 7.0 | 17.0 | 0.02 | 0.75 | 0.16 | 100 | 1008.2 |
| 20260903104034 | 56 | 186 | 17.0 | 17.0 | 0.02 | 0.75 | 0.16 | 100 | 1008.3 |
| 20260903103901 | 56 | 298 | 6.0 | 12.0 | 0.02 | 0.75 | 0.15 | 100 | 1008.3 |
| 20260903103527 | 56 | 215 | 6.0 | 12.0 | 0.00 | 0.75 | 0.14 | 100 | 1008.2 |
| 20260903103344 | 56 | 208 | 9.0 | 17.0 | 0.00 | 0.75 | 0.13 | 100 | 1008.2 |
| 20260903103021 | 56 | 260 | 8.0 | 17.0 | 0.00 | 0.75 | 0.13 | 100 | 1008.2 |
| 20260903102513 | 56 | 219 | 11.0 | 17.0 | 0.00 | 0.75 | 0.13 | 100 | 1008.1 |
| 20260903102311 | 56 | 194 | 5.0 | 17.0 | 0.00 | 0.75 | 0.13 | 100 | 1008.1 |
| 20260903102007 | 56 | 205 | 9.0 | 17.0 | 0.00 | 0.75 | 0.13 | 100 | 1008.1 |
| 20260903101753 | 56 | 218 | 14.0 | 17.0 | 0.00 | 0.75 | 0.13 | 100 | 1008.2 |
| 20260903101459 | 56 | 203 | 12.0 | 17.0 | 0.00 | 0.75 | 0.13 | 100 | 1008.2 |
| 20260903101236 | 56 | 204 | 8.0 | 17.0 | 0.00 | 0.75 | 0.13 | 100 | 1008.2 |
| 20260903100954 | 56 | 204 | 7.0 | 17.0 | 0.00 | 0.75 | 0.13 | 100 | 1008.2 |
| 20260903100719 | 56 | 166 | 7.0 | 17.0 | 0.00 | 0.75 | 0.13 | 100 | 1008.2 |
| 20260903100446 | 56 | 233 | 11.0 | 17.0 | 0.00 | 0.75 | 0.13 | 100 | 1008.2 |
| 20260903100202 | 56 | 175 | 7.0 | 17.0 | 0.00 | 0.75 | 0.13 | 100 | 1008.2 |
| 20260903095939 | 56 | 196 | 6.0 | 17.0 | 0.00 | 0.75 | 0.13 | 100 | 1008.2 |
| 20260903095645 | 56 | 184 | 11.0 | 17.0 | 0.00 | 0.75 | 0.13 | 100 | 1008.2 |
| 20260903095431 | 56 | 205 | 7.0 | 16.0 | 0.00 | 0.75 | 0.13 | 100 | 1008.1 |
| 20260903095128 | 56 | 179 | 9.0 | 16.0 | 0.00 | 0.75 | 0.13 | 100 | 1008.1 |
| 20260903094924 | 56 | 172 | 6.0 | 16.0 | 0.00 | 0.75 | 0.13 | 100 | 1008.1 |
| 20260903094611 | 56 | 207 | 11.0 | 16.0 | 0.00 | 0.75 | 0.13 | 100 | 1008.1 |
| 20260903094417 | 56 | 208 | 7.0 | 13.0 | 0.00 | 0.75 | 0.13 | 100 | 1008.1 |
| 20260903094054 | 56 | 190 | 6.0 | 16.0 | 0.00 | 0.75 | 0.13 | 100 | 1008.2 |
| 20260903093910 | 56 | 190 | 10.0 | 16.0 | 0.00 | 0.75 | 0.13 | 100 | 1008.3 |
| 20260903093537 | 56 | 186 | 10.0 | 16.0 | 0.00 | 0.75 | 0.13 | 100 | 1008.2 |
| 20260903093403 | 56 | 186 | 7.0 | 16.0 | 0.00 | 0.75 | 0.13 | 100 | 1008.2 |
| 20260903093020 | 56 | 211 | 11.0 | 16.0 | 0.00 | 0.75 | 0.13 | 100 | 1008.2 |
| 20260903092856 | 56 | 201 | 9.0 | 16.0 | 0.00 | 0.75 | 0.13 | 100 | 1008.2 |
| 20260903092503 | 56 | 194 | 11.0 | 16.0 | 0.00 | 0.75 | 0.13 | 100 | 1008.3 |
| 20260903092349 | 56 | 266 | 9.0 | 13.0 | 0.00 | 0.75 | 0.13 | 100 | 1008.3 |
| 20260903091946 | 56 | 219 | 7.0 | 20.0 | 0.00 | 0.75 | 0.13 | 100 | 1008.2 |
| 20260903091842 | 56 | 201 | 7.0 | 20.0 | 0.00 | 0.75 | 0.13 | 100 | 1008.2 |
| 20260903091429 | 56 | 189 | 6.0 | 20.0 | 0.00 | 0.75 | 0.13 | 100 | 1008.2 |
| 20260903090912 | 55 | 201 | 9.0 | 20.0 | 0.00 | 0.75 | 0.13 | 100 | 1008.3 |
| 20260903090829 | 55 | 187 | 6.0 | 20.0 | 0.00 | 0.75 | 0.13 | 100 | 1008.3 |
| 20260903090355 | 55 | 257 | 13.0 | 20.0 | 0.00 | 0.75 | 0.13 | 100 | 1008.5 |
| 20260903090321 | 55 | 196 | 13.0 | 20.0 | 0.00 | 0.75 | 0.13 | 100 | 1008.5 |
| 20260903085838 | 55 | 165 | 7.0 | 15.0 | 0.00 | 0.75 | 0.13 | 100 | 1008.5 |
| 20260903085815 | 55 | 0 | 0.0 | 15.0 | 0.00 | 0.75 | 0.13 | 100 | 1008.5 |
| 20260903085321 | 55 | 0 | 0.0 | 15.0 | 0.00 | 0.75 | 0.13 | 100 | 1008.5 |
| 20260903085307 | 55 | 205 | 10.0 | 15.0 | 0.00 | 0.75 | 0.13 | 100 | 1008.5 |
| 20260903084804 | 55 | 201 | 10.0 | 15.0 | 0.00 | 0.75 | 0.13 | 100 | 1008.5 |
| 20260903084800 | 55 | 204 | 5.0 | 15.0 | 0.00 | 0.75 | 0.13 | 100 | 1008.5 |
| 20260903084253 | 55 | 193 | 10.0 | 15.0 | 0.00 | 0.75 | 0.13 | 100 | 1008.6 |
| 20260903084247 | 55 | 193 | 12.0 | 15.0 | 0.00 | 0.75 | 0.13 | 100 | 1008.6 |
| 20260903083746 | 55 | 187 | 10.0 | 13.0 | 0.00 | 0.75 | 0.13 | 100 | 1008.6 |
| 20260903083731 | 55 | 187 | 9.0 | 13.0 | 0.00 | 0.75 | 0.13 | 100 | 1008.5 |
| 20260903083239 | 55 | 179 | 6.0 | 13.0 | 0.00 | 0.75 | 0.13 | 100 | 1008.5 |
| 20260903083213 | 55 | 179 | 11.0 | 13.0 | 0.00 | 0.75 | 0.13 | 100 | 1008.6 |
| 20260903082732 | 55 | 201 | 11.0 | 17.0 | 0.00 | 0.75 | 0.13 | 100 | 1008.5 |
| 20260903082656 | 55 | 177 | 9.0 | 17.0 | 0.00 | 0.75 | 0.13 | 100 | 1008.5 |
| 20260903082139 | 55 | 175 | 8.0 | 17.0 | 0.00 | 0.75 | 0.13 | 100 | 1008.5 |
| 20260903081718 | 55 | 179 | 11.0 | 17.0 | 0.00 | 0.75 | 0.13 | 100 | 1008.6 |
| 20260903081622 | 55 | 179 | 12.0 | 17.0 | 0.00 | 0.75 | 0.13 | 100 | 1008.6 |
| 20260903081211 | 55 | 187 | 11.0 | 17.0 | 0.00 | 0.75 | 0.13 | 100 | 1008.7 |
| 20260903081105 | 55 | 219 | 13.0 | 15.0 | 0.00 | 0.75 | 0.13 | 100 | 1008.7 |
| 20260903080704 | 55 | 252 | 10.0 | 14.0 | 0.00 | 0.75 | 0.13 | 100 | 1008.6 |
| 20260903080548 | 55 | 252 | 9.0 | 14.0 | 0.00 | 0.75 | 0.13 | 100 | 1008.6 |
| 20260903080157 | 56 | 221 | 10.0 | 11.0 | 0.00 | 0.75 | 0.13 | 100 | 1008.6 |
| 20260903080031 | 55 | 221 | 10.0 | 11.0 | 0.00 | 0.75 | 0.13 | 100 | 1008.6 |
| 20260903075650 | 55 | 187 | 7.0 | 24.0 | 0.00 | 0.75 | 0.13 | 100 | 1008.6 |
| 20260903075514 | 55 | 187 | 14.0 | 24.0 | 0.00 | 0.75 | 0.13 | 100 | 1008.6 |
| 20260903075143 | 55 | 212 | 10.0 | 24.0 | 0.00 | 0.75 | 0.13 | 100 | 1008.6 |
| 20260903074957 | 56 | 197 | 10.0 | 24.0 | 0.00 | 0.75 | 0.13 | 100 | 1008.6 |
| 20260903074636 | 55 | 212 | 11.0 | 24.0 | 0.00 | 0.75 | 0.13 | 100 | 1008.6 |
| 20260903074440 | 55 | 180 | 5.0 | 24.0 | 0.00 | 0.75 | 0.13 | 100 | 1008.6 |
| 20260903074129 | 55 | 191 | 15.0 | 24.0 | 0.00 | 0.75 | 0.13 | 100 | 1008.6 |
| 20260903073923 | 55 | 208 | 4.0 | 16.0 | 0.00 | 0.75 | 0.13 | 100 | 1008.7 |
| 20260903073622 | 55 | 196 | 10.0 | 15.0 | 0.00 | 0.75 | 0.13 | 100 | 1008.6 |
| 20260903073406 | 55 | 186 | 10.0 | 15.0 | 0.00 | 0.75 | 0.13 | 100 | 1008.6 |
| 20260903073138 | 55 | 215 | 7.0 | 15.0 | 0.00 | 0.75 | 0.13 | 100 | 1008.6 |
| 20260903073116 | 55 | 215 | 7.0 | 15.0 | 0.00 | 0.75 | 0.13 | 100 | 1008.6 |
| 20260903072848 | 55 | 215 | 7.0 | 15.0 | 0.00 | 0.75 | 0.13 | 100 | 1008.6 |
| 20260903072332 | 55 | 197 | 8.0 | 13.0 | 0.00 | 0.75 | 0.13 | 100 | 1008.6 |
| 20260903072101 | 55 | 169 | 7.0 | 13.0 | 0.00 | 0.75 | 0.13 | 100 | 1008.6 |
| 20260903071815 | 55 | 0 | 0.0 | 13.0 | 0.00 | 0.75 | 0.13 | 100 | 1008.5 |
| 20260903071555 | 55 | 186 | 11.0 | 13.0 | 0.00 | 0.75 | 0.13 | 100 | 1008.5 |
| 20260903071258 | 56 | 197 | 10.0 | 20.0 | 0.00 | 0.75 | 0.13 | 100 | 1008.5 |
| 20260903071047 | 56 | 197 | 13.0 | 20.0 | 0.00 | 0.75 | 0.13 | 100 | 1008.5 |
| 20260903070741 | 55 | 186 | 10.0 | 20.0 | 0.00 | 0.75 | 0.13 | 100 | 1008.5 |
| 20260903070540 | 55 | 186 | 11.0 | 20.0 | 0.00 | 0.75 | 0.13 | 100 | 1008.5 |
| 20260903070224 | 56 | 170 | 9.0 | 20.0 | 0.00 | 0.75 | 0.13 | 100 | 1008.5 |
| 20260903070033 | 56 | 176 | 5.0 | 20.0 | 0.00 | 0.75 | 0.13 | 100 | 1008.5 |
| 20260903065707 | 56 | 203 | 14.0 | 20.0 | 0.00 | 0.75 | 0.13 | 100 | 1008.5 |
| 20260903065526 | 56 | 203 | 13.0 | 20.0 | 0.00 | 0.75 | 0.13 | 100 | 1008.4 |
| 20260903065150 | 56 | 215 | 5.0 | 16.0 | 0.00 | 0.75 | 0.13 | 100 | 1008.5 |
| 20260903065019 | 56 | 183 | 7.0 | 16.0 | 0.00 | 0.75 | 0.13 | 100 | 1008.5 |
| 20260903064633 | 56 | 212 | 8.0 | 16.0 | 0.00 | 0.75 | 0.13 | 100 | 1008.4 |
| 20260903064512 | 56 | 183 | 6.0 | 16.0 | 0.00 | 0.75 | 0.13 | 100 | 1008.4 |
| 20260903064116 | 56 | 180 | 11.0 | 16.0 | 0.00 | 0.75 | 0.13 | 100 | 1008.4 |
| 20260903064005 | 56 | 201 | 7.0 | 9.0 | 0.00 | 0.75 | 0.13 | 100 | 1008.5 |
| 20260903063559 | 56 | 204 | 8.0 | 20.0 | 0.00 | 0.75 | 0.13 | 100 | 1008.4 |
| 20260903063458 | 56 | 204 | 8.0 | 20.0 | 0.00 | 0.75 | 0.13 | 100 | 1008.4 |
| 20260903063042 | 56 | 182 | 8.0 | 20.0 | 0.00 | 0.75 | 0.13 | 100 | 1008.4 |
| 20260903062952 | 56 | 169 | 9.0 | 20.0 | 0.00 | 0.75 | 0.13 | 100 | 1008.5 |
| 20260903062525 | 56 | 189 | 15.0 | 20.0 | 0.00 | 0.75 | 0.13 | 100 | 1008.5 |
| 20260903062444 | 56 | 204 | 7.0 | 20.0 | 0.00 | 0.75 | 0.13 | 100 | 1008.5 |
| 20260903062009 | 56 | 226 | 10.0 | 13.0 | 0.00 | 0.75 | 0.13 | 100 | 1008.5 |
| 20260903061937 | 56 | 226 | 5.0 | 13.0 | 0.00 | 0.75 | 0.13 | 100 | 1008.5 |
| 20260903061451 | 56 | 203 | 6.0 | 13.0 | 0.00 | 0.75 | 0.13 | 100 | 1008.5 |
| 20260903061430 | 56 | 203 | 9.0 | 13.0 | 0.00 | 0.75 | 0.13 | 100 | 1008.5 |
| 20260903060923 | 56 | 200 | 5.0 | 13.0 | 0.00 | 0.75 | 0.13 | 100 | 1008.5 |
| 20260903060416 | 56 | 208 | 9.0 | 11.0 | 0.00 | 0.75 | 0.13 | 100 | 1008.5 |
| 20260903055900 | 56 | 205 | 9.0 | 15.0 | 0.00 | 0.75 | 0.13 | 100 | 1008.6 |
| 20260903055402 | 56 | 208 | 8.0 | 15.0 | 0.00 | 0.75 | 0.13 | 100 | 1008.5 |
| 20260903055343 | 56 | 208 | 9.0 | 15.0 | 0.00 | 0.75 | 0.13 | 100 | 1008.5 |
| 20260903054855 | 56 | 212 | 3.0 | 15.0 | 0.00 | 0.75 | 0.13 | 100 | 1008.5 |
| 20260903054348 | 56 | 201 | 4.0 | 12.0 | 0.00 | 0.75 | 0.13 | 100 | 1008.7 |
| 20260903053842 | 56 | 193 | 5.0 | 12.0 | 0.00 | 0.75 | 0.13 | 100 | 1008.7 |
| 20260903053752 | 56 | 198 | 8.0 | 12.0 | 0.00 | 0.75 | 0.13 | 100 | 1008.7 |
| 20260903053334 | 56 | 186 | 4.0 | 12.0 | 0.00 | 0.75 | 0.13 | 100 | 1008.8 |
| 20260903053235 | 56 | 172 | 5.0 | 12.0 | 0.00 | 0.75 | 0.13 | 100 | 1008.8 |
| 20260903052718 | 56 | 180 | 5.0 | 11.0 | 0.00 | 0.75 | 0.13 | 100 | 1008.8 |
| 20260903052320 | 56 | 201 | 7.0 | 18.0 | 0.00 | 0.75 | 0.13 | 100 | 1008.7 |
| 20260903052202 | 56 | 236 | 5.0 | 18.0 | 0.00 | 0.75 | 0.13 | 100 | 1008.8 |
| 20260903051813 | 56 | 207 | 5.0 | 18.0 | 0.00 | 0.75 | 0.13 | 100 | 1008.7 |
| 20260903051644 | 56 | 214 | 10.0 | 18.0 | 0.00 | 0.75 | 0.13 | 100 | 1008.7 |
| 20260903051306 | 56 | 191 | 8.0 | 18.0 | 0.00 | 0.75 | 0.13 | 100 | 1008.7 |
| 20260903051127 | 56 | 191 | 7.0 | 18.0 | 0.00 | 0.75 | 0.13 | 100 | 1008.6 |
| 20260903050759 | 56 | 205 | 14.0 | 18.0 | 0.00 | 0.76 | 0.13 | 100 | 1008.6 |
| 20260903050611 | 56 | 228 | 8.0 | 16.0 | 0.00 | 0.76 | 0.13 | 100 | 1008.6 |
| 20260903050252 | 56 | 203 | 9.0 | 16.0 | 0.00 | 0.76 | 0.13 | 100 | 1008.7 |
| 20260903050053 | 56 | 203 | 7.0 | 16.0 | 0.00 | 0.76 | 0.13 | 100 | 1008.6 |
| 20260903045745 | 56 | 197 | 11.0 | 16.0 | 0.00 | 0.76 | 0.13 | 100 | 1008.6 |
| 20260903045536 | 56 | 212 | 9.0 | 16.0 | 0.00 | 0.76 | 0.13 | 100 | 1008.7 |
| 20260903045238 | 56 | 211 | 10.0 | 16.0 | 0.00 | 0.76 | 0.13 | 100 | 1008.6 |
| 20260903045019 | 56 | 197 | 8.0 | 10.0 | 0.00 | 0.76 | 0.13 | 100 | 1008.6 |
| 20260903044732 | 56 | 169 | 9.0 | 18.0 | 0.00 | 0.76 | 0.13 | 100 | 1008.6 |
| 20260903044502 | 56 | 196 | 7.0 | 18.0 | 0.00 | 0.76 | 0.13 | 100 | 1008.6 |
| 20260903044224 | 56 | 203 | 7.0 | 18.0 | 0.00 | 0.76 | 0.13 | 100 | 1008.6 |
| 20260903043945 | 56 | 203 | 8.0 | 18.0 | 0.00 | 0.76 | 0.13 | 100 | 1008.6 |
| 20260903043717 | 56 | 193 | 5.0 | 18.0 | 0.00 | 0.76 | 0.13 | 100 | 1008.6 |
| 20260903043428 | 56 | 201 | 4.0 | 18.0 | 0.00 | 0.76 | 0.13 | 100 | 1008.5 |
| 20260903043210 | 56 | 208 | 9.0 | 18.0 | 0.00 | 0.76 | 0.13 | 100 | 1008.5 |
| 20260903042911 | 56 | 225 | 6.0 | 8.0 | 0.00 | 0.76 | 0.13 | 100 | 1008.4 |
| 20260903042703 | 56 | 208 | 11.0 | 13.0 | 0.01 | 0.76 | 0.13 | 100 | 1008.5 |
| 20260903042354 | 56 | 197 | 9.0 | 13.0 | 0.01 | 0.76 | 0.13 | 100 | 1008.5 |
| 20260903042156 | 56 | 196 | 7.0 | 13.0 | 0.01 | 0.76 | 0.13 | 100 | 1008.5 |
| 20260903041837 | 56 | 208 | 8.0 | 13.0 | 0.01 | 0.76 | 0.13 | 100 | 1008.5 |
| 20260903041649 | 56 | 211 | 4.0 | 13.0 | 0.05 | 0.76 | 0.13 | 100 | 1008.5 |
| 20260903041142 | 56 | 226 | 10.0 | 13.0 | 0.05 | 0.76 | 0.13 | 100 | 1008.5 |
| 20260903040804 | 56 | 0 | 0.0 | 13.0 | 0.05 | 0.76 | 0.13 | 100 | 1008.5 |
| 20260903040635 | 56 | 190 | 4.0 | 13.0 | 0.07 | 0.71 | 0.13 | 100 | 1008.4 |
| 20260903040246 | 56 | 183 | 12.0 | 13.0 | 0.07 | 0.71 | 0.13 | 100 | 1008.4 |
| 20260903040128 | 56 | 183 | 9.0 | 13.0 | 0.07 | 0.71 | 0.13 | 100 | 1008.3 |
| 20260903035621 | 56 | 217 | 6.0 | 12.0 | 0.11 | 0.71 | 0.13 | 100 | 1008.4 |
| 20260903035212 | 56 | 187 | 8.0 | 12.0 | 0.11 | 0.71 | 0.13 | 100 | 1008.2 |
| 20260903035114 | 56 | 183 | 6.0 | 12.0 | 0.11 | 0.71 | 0.13 | 100 | 1008.3 |
| 20260903034655 | 56 | 184 | 7.0 | 12.0 | 0.13 | 0.71 | 0.13 | 100 | 1008.2 |
| 20260903034138 | 56 | 189 | 6.0 | 12.0 | 0.13 | 0.71 | 0.13 | 100 | 1008.2 |
| 20260903034100 | 56 | 189 | 8.0 | 12.0 | 0.13 | 0.71 | 0.13 | 100 | 1008.2 |
| 20260903033621 | 56 | 198 | 8.0 | 11.0 | 0.13 | 0.71 | 0.13 | 100 | 1008.2 |
| 20260903033553 | 56 | 198 | 7.0 | 11.0 | 0.13 | 0.71 | 0.13 | 100 | 1008.2 |
| 20260903033104 | 56 | 191 | 7.0 | 10.0 | 0.13 | 0.71 | 0.13 | 100 | 1008.1 |
| 20260903033046 | 56 | 210 | 6.0 | 10.0 | 0.13 | 0.71 | 0.13 | 100 | 1008.1 |
| 20260903032547 | 56 | 231 | 7.0 | 10.0 | 0.12 | 0.71 | 0.13 | 100 | 1008.1 |
| 20260903032539 | 56 | 231 | 8.0 | 10.0 | 0.12 | 0.71 | 0.13 | 100 | 1008.1 |
| 20260903032033 | 56 | 186 | 9.0 | 12.0 | 0.12 | 0.71 | 0.12 | 100 | 1008.1 |
| 20260903032030 | 56 | 186 | 8.0 | 12.0 | 0.12 | 0.71 | 0.12 | 100 | 1008.1 |
| 20260903031525 | 56 | 183 | 6.0 | 12.0 | 0.08 | 0.71 | 0.11 | 100 | 1008.1 |
| 20260903031514 | 56 | 183 | 7.0 | 12.0 | 0.08 | 0.71 | 0.11 | 100 | 1008.1 |
| 20260903031018 | 56 | 207 | 2.0 | 12.0 | 0.08 | 0.71 | 0.09 | 99 | 1008.2 |
| 20260903030956 | 56 | 207 | 3.0 | 12.0 | 0.08 | 0.71 | 0.09 | 99 | 1008.2 |
| 20260903030511 | 56 | 177 | 5.0 | 12.0 | 0.06 | 0.63 | 0.07 | 99 | 1008.1 |
| 20260903030439 | 56 | 177 | 6.0 | 12.0 | 0.06 | 0.63 | 0.07 | 99 | 1008.1 |
| 20260903030004 | 56 | 242 | 5.0 | 9.0 | 0.06 | 0.63 | 0.06 | 99 | 1007.9 |
| 20260903025922 | 57 | 242 | 7.0 | 9.0 | 0.06 | 0.63 | 0.06 | 99 | 1008.0 |
| 20260903025457 | 57 | 214 | 5.0 | 16.0 | 0.02 | 0.63 | 0.05 | 98 | 1007.9 |
| 20260903025406 | 57 | 214 | 3.0 | 16.0 | 0.02 | 0.63 | 0.05 | 98 | 1007.9 |
| 20260903024950 | 57 | 173 | 10.0 | 16.0 | 0.02 | 0.63 | 0.05 | 98 | 1007.8 |
| 20260903024848 | 57 | 173 | 10.0 | 16.0 | 0.02 | 0.63 | 0.03 | 98 | 1007.9 |
| 20260903024443 | 57 | 194 | 6.0 | 16.0 | 0.00 | 0.63 | 0.00 | 98 | 1007.8 |
| 20260903023936 | 57 | 211 | 7.0 | 15.0 | 0.00 | 0.63 | 0.00 | 98 | 1007.7 |
| 20260903023814 | 57 | 197 | 1.0 | 15.0 | 0.00 | 0.63 | 0.00 | 98 | 1007.7 |
| 20260903023429 | 57 | 186 | 9.0 | 15.0 | 0.00 | 0.63 | 0.00 | 98 | 1007.7 |
| 20260903023257 | 57 | 204 | 9.0 | 15.0 | 0.00 | 0.63 | 0.00 | 98 | 1007.8 |
| 20260903022922 | 57 | 212 | 8.0 | 15.0 | 0.00 | 0.63 | 0.00 | 97 | 1007.7 |
| 20260903022740 | 57 | 190 | 9.0 | 15.0 | 0.00 | 0.63 | 0.00 | 97 | 1007.8 |
| 20260903022415 | 57 | 190 | 10.0 | 15.0 | 0.00 | 0.63 | 0.00 | 97 | 1007.8 |
| 20260903022223 | 57 | 253 | 11.0 | 15.0 | 0.00 | 0.63 | 0.00 | 97 | 1007.8 |
| 20260903021706 | 57 | 208 | 10.0 | 14.0 | 0.00 | 0.63 | 0.00 | 97 | 1007.7 |
| 20260903021401 | 57 | 205 | 10.0 | 14.0 | 0.00 | 0.63 | 0.00 | 97 | 1007.8 |
| 20260903021149 | 57 | 169 | 9.0 | 14.0 | 0.00 | 0.63 | 0.00 | 97 | 1007.7 |
| 20260903020856 | 57 | 219 | 6.0 | 14.0 | 0.00 | 0.63 | 0.00 | 97 | 1007.7 |
| 20260903020632 | 57 | 261 | 8.0 | 14.0 | 0.00 | 0.63 | 0.00 | 97 | 1007.7 |
| 20260903020347 | 57 | 172 | 8.0 | 11.0 | 0.00 | 0.63 | 0.00 | 96 | 1007.7 |
| 20260903020115 | 58 | 215 | 8.0 | 18.0 | 0.00 | 0.63 | 0.00 | 96 | 1007.8 |
| 20260903015840 | 58 | 215 | 10.0 | 18.0 | 0.00 | 0.63 | 0.00 | 96 | 1007.8 |
| 20260903015559 | 58 | 208 | 9.0 | 18.0 | 0.00 | 0.63 | 0.00 | 96 | 1007.8 |
| 20260903015041 | 58 | 182 | 10.0 | 18.0 | 0.00 | 0.63 | 0.00 | 96 | 1007.8 |
| 20260903014524 | 58 | 163 | 14.0 | 18.0 | 0.00 | 0.63 | 0.00 | 96 | 1007.8 |
| 20260903014319 | 58 | 217 | 9.0 | 16.0 | 0.00 | 0.63 | 0.00 | 96 | 1007.8 |
| 20260903014007 | 58 | 261 | 7.0 | 16.0 | 0.00 | 0.63 | 0.00 | 96 | 1007.9 |
| 20260903013812 | 58 | 294 | 5.0 | 16.0 | 0.00 | 0.63 | 0.00 | 95 | 1007.9 |
| 20260903013450 | 58 | 193 | 10.0 | 16.0 | 0.00 | 0.63 | 0.00 | 95 | 1007.8 |
| 20260903013305 | 58 | 254 | 9.0 | 16.0 | 0.00 | 0.63 | 0.00 | 95 | 1007.8 |
| 20260903012933 | 59 | 254 | 9.0 | 16.0 | 0.00 | 0.63 | 0.00 | 95 | 1007.7 |
| 20260903012758 | 59 | 187 | 14.0 | 16.0 | 0.00 | 0.63 | 0.00 | 95 | 1007.7 |
| 20260903012416 | 59 | 172 | 6.0 | 12.0 | 0.00 | 0.63 | 0.00 | 95 | 1007.6 |
| 20260903012251 | 59 | 215 | 10.0 | 12.0 | 0.00 | 0.63 | 0.00 | 95 | 1007.7 |
| 20260903011859 | 59 | 205 | 8.0 | 12.0 | 0.00 | 0.63 | 0.00 | 95 | 1007.6 |
| 20260903011744 | 59 | 186 | 9.0 | 12.0 | 0.00 | 0.63 | 0.00 | 95 | 1007.6 |
| 20260903011342 | 58 | 173 | 2.0 | 12.0 | 0.00 | 0.63 | 0.00 | 95 | 1007.7 |
| 20260903011237 | 58 | 205 | 8.0 | 12.0 | 0.00 | 0.63 | 0.00 | 95 | 1007.6 |
| 20260903010825 | 59 | 231 | 5.0 | 11.0 | 0.00 | 0.63 | 0.00 | 94 | 1007.6 |
| 20260903010730 | 59 | 196 | 6.0 | 11.0 | 0.00 | 0.63 | 0.00 | 94 | 1007.6 |
| 20260903010308 | 59 | 218 | 3.0 | 11.0 | 0.00 | 0.63 | 0.00 | 94 | 1007.6 |
| 20260903010223 | 59 | 232 | 6.0 | 11.0 | 0.00 | 0.63 | 0.00 | 94 | 1007.6 |
| 20260903005751 | 59 | 212 | 5.0 | 10.0 | 0.00 | 0.63 | 0.00 | 94 | 1007.6 |
| 20260903005716 | 59 | 212 | 7.0 | 10.0 | 0.00 | 0.63 | 0.00 | 94 | 1007.6 |
| 20260903005234 | 59 | 221 | 8.0 | 10.0 | 0.00 | 0.63 | 0.00 | 93 | 1007.6 |
| 20260903005209 | 59 | 240 | 8.0 | 10.0 | 0.00 | 0.63 | 0.00 | 93 | 1007.6 |
| 20260903004717 | 59 | 207 | 6.0 | 10.0 | 0.00 | 0.63 | 0.00 | 93 | 1007.4 |
| 20260903004702 | 60 | 207 | 7.0 | 10.0 | 0.00 | 0.63 | 0.00 | 93 | 1007.4 |
| 20260903004155 | 60 | 243 | 6.0 | 10.0 | 0.00 | 0.63 | 0.00 | 93 | 1007.4 |
| 20260903003642 | 60 | 182 | 7.0 | 10.0 | 0.00 | 0.63 | 0.00 | 93 | 1007.5 |
| 20260903003141 | 61 | 243 | 7.0 | 9.0 | 0.00 | 0.63 | 0.00 | 93 | 1007.3 |
| 20260903003125 | 61 | 243 | 7.0 | 9.0 | 0.00 | 0.63 | 0.00 | 93 | 1007.3 |
| 20260903002634 | 61 | 235 | 4.0 | 10.0 | 0.00 | 0.63 | 0.00 | 94 | 1007.3 |
| 20260903002609 | 61 | 235 | 4.0 | 10.0 | 0.00 | 0.63 | 0.00 | 94 | 1007.4 |
| 20260903002127 | 62 | 198 | 9.0 | 10.0 | 0.00 | 0.63 | 0.00 | 95 | 1007.4 |
| 20260903002051 | 62 | 198 | 5.0 | 10.0 | 0.00 | 0.63 | 0.00 | 95 | 1007.4 |
| 20260903001620 | 62 | 235 | 3.0 | 10.0 | 0.00 | 0.63 | 0.00 | 95 | 1007.2 |
| 20260903001534 | 62 | 217 | 4.0 | 10.0 | 0.00 | 0.63 | 0.00 | 95 | 1007.2 |
| 20260903001113 | 62 | 208 | 10.0 | 10.0 | 0.00 | 0.63 | 0.00 | 96 | 1007.2 |
| 20260903001017 | 62 | 182 | 5.0 | 8.0 | 0.00 | 0.63 | 0.00 | 97 | 1007.2 |
| 20260903000606 | 62 | 205 | 6.0 | 8.0 | 0.00 | 0.63 | 0.00 | 98 | 1007.2 |
| 20260903000501 | 61 | 205 | 4.0 | 8.0 | 0.00 | 0.63 | 0.00 | 98 | 1007.2 |
| 20260903000059 | 61 | 158 | 7.0 | 9.0 | 0.00 | 0.63 | 0.63 | 98 | 1007.1 |
| 20260902235551 | 60 | 208 | 4.0 | 9.0 | 0.00 | 0.63 | 0.63 | 98 | 1007.1 |
| 20260902235426 | 60 | 208 | 5.0 | 9.0 | 0.00 | 0.63 | 0.63 | 98 | 1007.1 |
| 20260902235044 | 60 | 193 | 7.0 | 9.0 | 0.00 | 0.63 | 0.63 | 99 | 1007.1 |
| 20260902234910 | 60 | 193 | 7.0 | 9.0 | 0.00 | 0.63 | 0.63 | 99 | 1007.1 |
| 20260902234538 | 60 | 224 | 7.0 | 9.0 | 0.00 | 0.63 | 0.63 | 99 | 1007.0 |
| 20260902234352 | 60 | 229 | 4.0 | 9.0 | 0.00 | 0.63 | 0.63 | 99 | 1007.0 |
| 20260902234030 | 61 | 229 | 5.0 | 8.0 | 0.00 | 0.63 | 0.63 | 100 | 1007.0 |
| 20260902233835 | 61 | 0 | 0.0 | 8.0 | 0.00 | 0.63 | 0.63 | 100 | 1006.9 |
| 20260902233524 | 61 | 263 | 2.0 | 8.0 | 0.00 | 0.63 | 0.63 | 100 | 1006.9 |
| 20260902233319 | 61 | 0 | 0.0 | 8.0 | 0.00 | 0.63 | 0.63 | 100 | 1006.9 |
| 20260902233017 | 61 | 0 | 0.0 | 5.0 | 0.00 | 0.63 | 0.63 | 100 | 1006.9 |
| 20260902232802 | 60 | 197 | 2.0 | 5.0 | 0.00 | 0.63 | 0.63 | 100 | 1006.8 |
| 20260902232510 | 60 | 0 | 0.0 | 5.0 | 0.00 | 0.63 | 0.63 | 100 | 1006.8 |
| 20260902232244 | 60 | 200 | 2.0 | 5.0 | 0.00 | 0.63 | 0.63 | 100 | 1006.8 |
| 20260902232002 | 60 | 200 | 2.0 | 8.0 | 0.00 | 0.63 | 0.63 | 100 | 1006.7 |
| 20260902231727 | 60 | 155 | 4.0 | 8.0 | 0.00 | 0.63 | 0.63 | 100 | 1006.7 |
| 20260902231455 | 59 | 0 | 0.0 | 8.0 | 0.00 | 0.63 | 0.63 | 100 | 1006.6 |
| 20260902231210 | 59 | 228 | 2.0 | 8.0 | 0.00 | 0.63 | 0.63 | 100 | 1006.6 |
| 20260902230948 | 59 | 0 | 0.0 | 8.0 | 0.00 | 0.63 | 0.63 | 100 | 1006.7 |
| 20260902230653 | 59 | 210 | 3.0 | 8.0 | 0.01 | 0.63 | 0.63 | 100 | 1006.5 |
| 20260902230441 | 59 | 217 | 2.0 | 8.0 | 0.01 | 0.63 | 0.63 | 100 | 1006.6 |
| 20260902230136 | 59 | 177 | 7.0 | 8.0 | 0.01 | 0.63 | 0.63 | 100 | 1006.5 |
| 20260902225934 | 59 | 152 | 5.0 | 8.0 | 0.01 | 0.63 | 0.63 | 100 | 1006.5 |
| 20260902225619 | 59 | 0 | 0.0 | 8.0 | 0.01 | 0.63 | 0.63 | 100 | 1006.5 |
| 20260902225427 | 59 | 0 | 0.0 | 8.0 | 0.01 | 0.63 | 0.63 | 100 | 1006.5 |
| 20260902224921 | 58 | 177 | 7.0 | 8.0 | 0.01 | 0.63 | 0.63 | 100 | 1006.3 |
| 20260902224545 | 58 | 0 | 0.0 | 6.0 | 0.02 | 0.63 | 0.63 | 100 | 1006.4 |
| 20260902224413 | 58 | 0 | 0.0 | 6.0 | 0.02 | 0.63 | 0.63 | 100 | 1006.3 |
| 20260902224028 | 58 | 0 | 0.0 | 9.0 | 0.02 | 0.63 | 0.63 | 100 | 1006.3 |
| 20260902223906 | 58 | 0 | 0.0 | 9.0 | 0.02 | 0.63 | 0.63 | 100 | 1006.3 |
| 20260902223512 | 58 | 197 | 1.0 | 9.0 | 0.02 | 0.63 | 0.63 | 100 | 1006.2 |
| 20260902223400 | 58 | 197 | 3.0 | 9.0 | 0.02 | 0.63 | 0.63 | 100 | 1006.2 |
| 20260902222954 | 57 | 0 | 0.0 | 9.0 | 0.02 | 0.63 | 0.63 | 100 | 1006.2 |
| 20260902222852 | 57 | 0 | 0.0 | 9.0 | 0.02 | 0.63 | 0.63 | 100 | 1006.2 |
| 20260902222437 | 57 | 194 | 3.0 | 9.0 | 0.02 | 0.63 | 0.63 | 100 | 1006.3 |
| 20260902222345 | 57 | 204 | 6.0 | 9.0 | 0.02 | 0.63 | 0.63 | 100 | 1006.3 |
| 20260902221920 | 57 | 186 | 4.0 | 8.0 | 0.02 | 0.63 | 0.63 | 100 | 1006.2 |
| 20260902221838 | 57 | 186 | 6.0 | 8.0 | 0.02 | 0.63 | 0.63 | 100 | 1006.2 |
| 20260902221403 | 57 | 170 | 2.0 | 10.0 | 0.02 | 0.63 | 0.63 | 100 | 1006.1 |
| 20260902221332 | 57 | 170 | 2.0 | 10.0 | 0.02 | 0.63 | 0.63 | 100 | 1006.1 |
| 20260902220848 | 57 | 173 | 4.0 | 10.0 | 0.02 | 0.63 | 0.63 | 100 | 1006.1 |
| 20260902220824 | 57 | 173 | 2.0 | 10.0 | 0.02 | 0.63 | 0.63 | 100 | 1006.0 |
| 20260902220330 | 57 | 0 | 0.0 | 10.0 | 0.01 | 0.63 | 0.63 | 100 | 1006.0 |
| 20260902220318 | 57 | 0 | 0.0 | 10.0 | 0.01 | 0.63 | 0.63 | 100 | 1006.0 |
| 20260902215810 | 57 | 161 | 7.0 | 7.0 | 0.02 | 0.62 | 0.62 | 100 | 1006.0 |
| 20260902215306 | 57 | 0 | 3.0 | 13.0 | 0.02 | 0.62 | 0.62 | 100 | 1005.9 |
| 20260902215255 | 57 | 194 | 8.0 | 13.0 | 0.02 | 0.62 | 0.62 | 100 | 1005.9 |
| 20260902214756 | 57 | 180 | 5.0 | 13.0 | 0.02 | 0.62 | 0.62 | 100 | 1005.9 |
| 20260902214738 | 57 | 180 | 5.0 | 13.0 | 0.02 | 0.62 | 0.62 | 100 | 1005.9 |
| 20260902214249 | 57 | 204 | 11.0 | 13.0 | 0.02 | 0.61 | 0.61 | 100 | 1006.0 |
| 20260902214221 | 57 | 204 | 9.0 | 13.0 | 0.02 | 0.61 | 0.61 | 100 | 1006.0 |
| 20260902213743 | 57 | 173 | 5.0 | 11.0 | 0.02 | 0.61 | 0.61 | 100 | 1005.9 |
| 20260902213704 | 57 | 173 | 5.0 | 11.0 | 0.02 | 0.61 | 0.61 | 100 | 1005.9 |
| 20260902213235 | 57 | 212 | 4.0 | 11.0 | 0.02 | 0.61 | 0.61 | 100 | 1005.9 |
| 20260902213147 | 57 | 212 | 5.0 | 11.0 | 0.02 | 0.61 | 0.61 | 100 | 1005.9 |
| 20260902212630 | 57 | 205 | 8.0 | 11.0 | 0.02 | 0.61 | 0.61 | 100 | 1005.9 |
| 20260902212221 | 57 | 200 | 6.0 | 9.0 | 0.02 | 0.61 | 0.61 | 100 | 1005.9 |
| 20260902212113 | 57 | 187 | 3.0 | 6.0 | 0.02 | 0.61 | 0.61 | 100 | 1005.9 |
| 20260902211714 | 57 | 222 | 7.0 | 15.0 | 0.03 | 0.61 | 0.61 | 100 | 1005.9 |
| 20260902211556 | 57 | 222 | 6.0 | 15.0 | 0.03 | 0.61 | 0.61 | 100 | 1005.9 |
| 20260902211207 | 56 | 189 | 8.0 | 15.0 | 0.03 | 0.61 | 0.61 | 100 | 1005.8 |
| 20260902211039 | 56 | 166 | 5.0 | 15.0 | 0.03 | 0.61 | 0.61 | 100 | 1005.9 |
| 20260902210700 | 57 | 210 | 6.0 | 15.0 | 0.06 | 0.61 | 0.61 | 100 | 1005.9 |
| 20260902210522 | 57 | 232 | 4.0 | 15.0 | 0.06 | 0.61 | 0.61 | 100 | 1005.9 |
| 20260902210153 | 57 | 191 | 10.0 | 15.0 | 0.06 | 0.61 | 0.61 | 100 | 1005.8 |
| 20260902210006 | 56 | 191 | 11.0 | 15.0 | 0.06 | 0.61 | 0.61 | 100 | 1005.7 |
| 20260902205646 | 57 | 205 | 6.0 | 9.0 | 0.06 | 0.61 | 0.61 | 100 | 1005.7 |
| 20260902205448 | 57 | 228 | 2.0 | 4.0 | 0.06 | 0.60 | 0.60 | 100 | 1005.7 |
| 20260902205139 | 57 | 211 | 4.0 | 15.0 | 0.06 | 0.60 | 0.60 | 100 | 1005.6 |
| 20260902204931 | 57 | 196 | 4.0 | 15.0 | 0.06 | 0.60 | 0.60 | 100 | 1005.6 |
| 20260902204632 | 57 | 277 | 6.0 | 15.0 | 0.06 | 0.60 | 0.60 | 100 | 1005.6 |
| 20260902204414 | 57 | 197 | 4.0 | 15.0 | 0.06 | 0.60 | 0.60 | 100 | 1005.6 |
| 20260902204125 | 57 | 210 | 5.0 | 15.0 | 0.06 | 0.59 | 0.59 | 100 | 1005.5 |
| 20260902203858 | 56 | 210 | 4.0 | 15.0 | 0.06 | 0.59 | 0.59 | 100 | 1005.4 |
| 20260902203618 | 56 | 215 | 10.0 | 15.0 | 0.08 | 0.59 | 0.59 | 100 | 1005.5 |
| 20260902203340 | 56 | 175 | 11.0 | 15.0 | 0.08 | 0.59 | 0.59 | 100 | 1005.5 |
| 20260902203111 | 56 | 296 | 3.0 | 24.0 | 0.08 | 0.59 | 0.59 | 100 | 1005.6 |
| 20260902202823 | 56 | 180 | 1.0 | 24.0 | 0.08 | 0.59 | 0.59 | 100 | 1005.5 |
| 20260902202604 | 56 | 205 | 9.0 | 24.0 | 0.09 | 0.59 | 0.59 | 100 | 1005.5 |
| 20260902202306 | 56 | 287 | 7.0 | 24.0 | 0.09 | 0.59 | 0.59 | 100 | 1005.4 |
| 20260902202057 | 56 | 287 | 10.0 | 24.0 | 0.09 | 0.59 | 0.59 | 100 | 1005.4 |
| 20260902201749 | 56 | 260 | 16.0 | 24.0 | 0.09 | 0.59 | 0.59 | 100 | 1005.1 |
| 20260902201232 | 56 | 239 | 12.0 | 19.0 | 0.09 | 0.58 | 0.58 | 100 | 1005.1 |
| 20260902201043 | 56 | 247 | 9.0 | 24.0 | 0.09 | 0.58 | 0.58 | 100 | 1005.3 |
| 20260902200715 | 56 | 242 | 7.0 | 24.0 | 0.07 | 0.58 | 0.58 | 100 | 1005.3 |
| 20260902200536 | 56 | 240 | 7.0 | 24.0 | 0.07 | 0.57 | 0.57 | 100 | 1005.4 |
| 20260902200158 | 56 | 177 | 7.0 | 24.0 | 0.07 | 0.56 | 0.57 | 100 | 1005.3 |
| 20260902200029 | 56 | 177 | 9.0 | 24.0 | 0.07 | 0.56 | 0.56 | 100 | 1005.3 |
| 20260902195641 | 56 | 226 | 6.0 | 24.0 | 0.07 | 0.55 | 0.55 | 100 | 1005.3 |
| 20260902195523 | 56 | 219 | 8.0 | 24.0 | 0.07 | 0.54 | 0.54 | 100 | 1005.2 |
| 20260902195124 | 56 | 215 | 9.0 | 23.0 | 0.07 | 0.54 | 0.54 | 100 | 1005.1 |
| 20260902195015 | 56 | 252 | 8.0 | 23.0 | 0.07 | 0.54 | 0.54 | 100 | 1005.1 |
| 20260902194608 | 56 | 242 | 9.0 | 23.0 | 0.07 | 0.54 | 0.54 | 100 | 1005.0 |
| 20260902194508 | 56 | 242 | 11.0 | 23.0 | 0.07 | 0.54 | 0.54 | 100 | 1004.9 |
| 20260902194050 | 56 | 184 | 12.0 | 23.0 | 0.07 | 0.53 | 0.53 | 100 | 1004.9 |
| 20260902194001 | 56 | 212 | 6.0 | 23.0 | 0.07 | 0.53 | 0.53 | 100 | 1004.9 |
| 20260902193533 | 56 | 212 | 16.0 | 23.0 | 0.07 | 0.53 | 0.53 | 100 | 1004.8 |
| 20260902193454 | 56 | 211 | 15.0 | 21.0 | 0.07 | 0.53 | 0.53 | 100 | 1004.8 |
| 20260902193016 | 56 | 203 | 14.0 | 19.0 | 0.07 | 0.52 | 0.52 | 100 | 1004.8 |
| 20260902192947 | 56 | 203 | 9.0 | 19.0 | 0.07 | 0.52 | 0.52 | 100 | 1004.8 |
| 20260902192459 | 56 | 226 | 11.0 | 27.0 | 0.09 | 0.51 | 0.51 | 100 | 1004.7 |
| 20260902192440 | 56 | 226 | 13.0 | 27.0 | 0.09 | 0.51 | 0.51 | 100 | 1004.7 |
| 20260902191942 | 56 | 187 | 10.0 | 27.0 | 0.09 | 0.50 | 0.50 | 100 | 1004.7 |
| 20260902191934 | 56 | 187 | 9.0 | 27.0 | 0.09 | 0.50 | 0.50 | 100 | 1004.8 |
| 20260902191425 | 56 | 232 | 10.0 | 27.0 | 0.11 | 0.50 | 0.50 | 100 | 1004.7 |
| 20260902190920 | 57 | 168 | 9.0 | 17.0 | 0.11 | 0.49 | 0.49 | 100 | 1004.6 |
| 20260902190908 | 57 | 168 | 7.0 | 17.0 | 0.11 | 0.49 | 0.49 | 100 | 1004.6 |
| 20260902190412 | 57 | 162 | 6.0 | 17.0 | 0.13 | 0.49 | 0.49 | 100 | 1004.5 |
| 20260902185905 | 57 | 194 | 6.0 | 17.0 | 0.13 | 0.48 | 0.48 | 100 | 1004.5 |
| 20260902185358 | 57 | 196 | 7.0 | 17.0 | 0.15 | 0.48 | 0.48 | 100 | 1004.5 |
| 20260902185320 | 57 | 0 | 0.0 | 17.0 | 0.15 | 0.48 | 0.48 | 100 | 1004.5 |
| 20260902184851 | 57 | 191 | 4.0 | 17.0 | 0.15 | 0.47 | 0.47 | 100 | 1004.3 |
| 20260902184800 | 57 | 187 | 10.0 | 17.0 | 0.16 | 0.47 | 0.47 | 100 | 1004.4 |
| 20260902184344 | 57 | 299 | 4.0 | 10.0 | 0.16 | 0.46 | 0.46 | 100 | 1004.3 |
| 20260902184243 | 57 | 200 | 3.0 | 10.0 | 0.16 | 0.46 | 0.46 | 100 | 1004.3 |
| 20260902183838 | 57 | 219 | 5.0 | 10.0 | 0.16 | 0.46 | 0.46 | 100 | 1004.2 |
| 20260902183726 | 57 | 173 | 5.0 | 10.0 | 0.15 | 0.46 | 0.46 | 100 | 1004.1 |
| 20260902183330 | 57 | 155 | 5.0 | 5.0 | 0.15 | 0.46 | 0.46 | 100 | 1004.1 |
| 20260902183210 | 57 | 193 | 2.0 | 5.0 | 0.15 | 0.45 | 0.45 | 100 | 1004.1 |
| 20260902182823 | 57 | 193 | 4.0 | 5.0 | 0.15 | 0.44 | 0.44 | 100 | 1004.1 |
| 20260902182652 | 57 | 190 | 2.0 | 5.0 | 0.13 | 0.44 | 0.44 | 100 | 1004.1 |
| 20260902182316 | 57 | 0 | 0.0 | 5.0 | 0.13 | 0.43 | 0.43 | 100 | 1004.2 |
| 20260902182135 | 57 | 156 | 4.0 | 5.0 | 0.13 | 0.42 | 0.42 | 100 | 1004.1 |
| 20260902181809 | 57 | 0 | 0.0 | 5.0 | 0.13 | 0.41 | 0.41 | 100 | 1004.1 |
| 20260902181618 | 57 | 183 | 4.0 | 5.0 | 0.10 | 0.41 | 0.41 | 100 | 1004.1 |
| 20260902181302 | 57 | 232 | 1.0 | 3.0 | 0.10 | 0.40 | 0.40 | 100 | 1004.0 |
| 20260902181101 | 57 | 0 | 0.0 | 0.0 | 0.10 | 0.39 | 0.39 | 100 | 1004.1 |
| 20260902180755 | 57 | 0 | 0.0 | 0.0 | 0.08 | 0.37 | 0.38 | 100 | 1004.1 |
| 20260902180544 | 57 | 0 | 0.0 | 0.0 | 0.08 | 0.36 | 0.37 | 100 | 1004.1 |
| 20260902180248 | 57 | 0 | 0.0 | 5.0 | 0.08 | 0.36 | 0.36 | 100 | 1004.0 |
| 20260902180027 | 57 | 0 | 0.0 | 5.0 | 0.08 | 0.35 | 0.35 | 100 | 1004.0 |
| 20260902175741 | 57 | 201 | 1.0 | 5.0 | 0.07 | 0.35 | 0.35 | 100 | 1003.9 |
| 20260902175510 | 57 | 201 | 1.0 | 5.0 | 0.07 | 0.35 | 0.35 | 100 | 1003.9 |
| 20260902175234 | 57 | 173 | 5.0 | 5.0 | 0.07 | 0.34 | 0.34 | 100 | 1004.0 |
| 20260902174953 | 57 | 173 | 4.0 | 5.0 | 0.07 | 0.32 | 0.32 | 100 | 1004.1 |
| 20260902174727 | 57 | 203 | 4.0 | 5.0 | 0.07 | 0.31 | 0.31 | 100 | 1004.0 |
| 20260902174436 | 57 | 203 | 2.0 | 8.0 | 0.07 | 0.31 | 0.31 | 100 | 1003.9 |
| 20260902174220 | 57 | 177 | 7.0 | 8.0 | 0.07 | 0.31 | 0.31 | 100 | 1003.9 |
| 20260902173919 | 57 | 0 | 0.0 | 8.0 | 0.07 | 0.30 | 0.30 | 100 | 1003.9 |
| 20260902173713 | 57 | 165 | 3.0 | 8.0 | 0.09 | 0.30 | 0.30 | 100 | 1003.8 |
| 20260902173402 | 57 | 0 | 0.0 | 8.0 | 0.09 | 0.29 | 0.29 | 100 | 1003.8 |
| 20260902173206 | 57 | 211 | 3.0 | 8.0 | 0.09 | 0.29 | 0.29 | 100 | 1003.9 |
| 20260902172845 | 57 | 148 | 2.0 | 8.0 | 0.09 | 0.29 | 0.29 | 100 | 1003.8 |
| 20260902172659 | 57 | 175 | 7.0 | 8.0 | 0.12 | 0.29 | 0.29 | 100 | 1003.8 |
| 20260902172329 | 57 | 0 | 0.0 | 6.0 | 0.12 | 0.29 | 0.29 | 100 | 1003.7 |
| 20260902171811 | 57 | 0 | 0.0 | 6.0 | 0.12 | 0.28 | 0.28 | 100 | 1003.7 |
| 20260902171645 | 57 | 166 | 4.0 | 5.0 | 0.14 | 0.28 | 0.28 | 100 | 1003.7 |
| 20260902171254 | 56 | 203 | 2.0 | 5.0 | 0.14 | 0.28 | 0.28 | 100 | 1003.6 |
| 20260902171138 | 56 | 203 | 2.0 | 5.0 | 0.14 | 0.28 | 0.28 | 100 | 1003.7 |
| 20260902170737 | 56 | 168 | 3.0 | 14.0 | 0.15 | 0.28 | 0.28 | 100 | 1003.7 |
| 20260902170631 | 56 | 168 | 7.0 | 14.0 | 0.15 | 0.28 | 0.28 | 100 | 1003.7 |
| 20260902170220 | 56 | 144 | 8.0 | 14.0 | 0.15 | 0.27 | 0.27 | 100 | 1003.6 |
| 20260902170124 | 56 | 144 | 8.0 | 14.0 | 0.15 | 0.27 | 0.27 | 100 | 1003.6 |
| 20260902165703 | 56 | 100 | 8.0 | 14.0 | 0.14 | 0.26 | 0.26 | 99 | 1003.6 |
| 20260902165617 | 56 | 100 | 6.0 | 14.0 | 0.14 | 0.26 | 0.26 | 99 | 1003.7 |
| 20260902165146 | 56 | 112 | 8.0 | 12.0 | 0.14 | 0.26 | 0.26 | 99 | 1003.6 |
| 20260902165110 | 56 | 112 | 8.0 | 12.0 | 0.14 | 0.26 | 0.26 | 99 | 1003.6 |
| 20260902164629 | 56 | 138 | 6.0 | 12.0 | 0.13 | 0.25 | 0.25 | 99 | 1003.6 |
| 20260902164112 | 56 | 113 | 8.0 | 12.0 | 0.13 | 0.24 | 0.24 | 99 | 1003.7 |
| 20260902164056 | 56 | 113 | 9.0 | 12.0 | 0.13 | 0.24 | 0.24 | 99 | 1003.7 |
| 20260902163549 | 56 | 179 | 6.0 | 11.0 | 0.11 | 0.23 | 0.23 | 99 | 1003.9 |
| 20260902163038 | 57 | 158 | 7.0 | 11.0 | 0.11 | 0.21 | 0.21 | 99 | 1004.2 |
| 20260902162537 | 57 | 105 | 7.0 | 11.0 | 0.07 | 0.19 | 0.19 | 98 | 1004.3 |
| 20260902162521 | 57 | 105 | 7.0 | 11.0 | 0.07 | 0.19 | 0.19 | 98 | 1004.3 |